Location: Geçitköy
(36.7327°N, 29.8010°E)
Time: 20:07:23
(UTC+00:00)

SMAP - Pass Details

Date: 12 January 2026
Orbit: 681 x 683 km, 98.1° (Epoch: 11 February)

Event Time Altitude Azimuth Distance (km) Brightness Sun altitude
Rises 15:55:26 0° 181° (S) 3,029 6.7 -10.1°
Reaches altitude 10° 15:57:44 10° 188° (S) 2,118 6.0 -10.5°
Maximum altitude 16:02:10 45° 261° (W) 926 4.3 -11.4°
Drops below altitude 10° 16:06:39 10° 334° (NNW) 2,132 5.7 -12.2°
Sets 16:08:59 0° 341° (NNW) 3,051 6.4 -12.7°
